Location: Pinon Hills
(34.4429°N, 117.6403°W)
Time: 20:59:22
(UTC-07:00)

Uosat F - Visible Passes

Search period start: 31 October 2014 00:00
Search period end: 09 November 2014 23:00
Orbit: 752 x 761 km, 98.7° (Epoch: 31 October)

Date Brightness Start Highest point End Pass type
(mag) Time Alt. Az. Time Alt. Az. Time Alt. Az.
31 Oct 11.6 05:03:47 10° NNE 05:08:45 57° E 05:13:41 10° S visible
01 Nov 13.3 04:25:33 10° NE 04:29:26 22° E 04:33:18 10° SE visible
01 Nov 11.6 06:03:41 10° N 06:08:14 35° WNW 06:12:45 10° SW visible
02 Nov 11.0 04:24:10 10° NNE 04:29:14 88° WNW 04:34:16 10° SSW visible
03 Nov 12.5 03:45:24 10° NNE 03:50:01 36° E 03:54:36 10° SSE visible
03 Nov 12.2 05:24:43 10° NNW 05:28:33 22° WNW 05:32:22 10° WSW visible
04 Nov 13.9 03:08:03 10° ENE 03:10:36 14° E 03:13:08 10° ESE visible
04 Nov 11.1 04:44:44 10° N 04:49:40 54° WNW 04:54:32 10° SSW visible
05 Nov 11.6 04:05:34 10° NNE 04:10:33 58° E 04:15:29 10° S visible
05 Nov 12.7 05:46:13 10° NNW 05:48:47 14° WNW 05:51:21 10° W visible
06 Nov 13.3 03:27:18 10° NE 03:31:14 23° E 03:35:09 10° SSE visible
06 Nov 11.7 05:05:31 10° N 05:10:01 34° WNW 05:14:30 10° SW visible
07 Nov 10.9 04:25:58 10° NNE 04:31:02 86° WNW 04:36:03 10° SSW visible
08 Nov 12.5 03:47:10 10° NNE 03:51:49 36° E 03:56:25 10° SSE visible
08 Nov 12.2 05:26:33 10° NNW 05:30:19 22° WNW 05:34:05 10° WSW visible
09 Nov 13.9 03:09:45 10° ENE 03:12:24 14° E 03:15:02 10° SE visible
09 Nov 11.1 04:46:32 10° N 04:51:26 53° WNW 04:56:18 10° SSW visible
